Year,Month,Day,Hour,Minute,Value (Times are PST for temperature in C)
2008,01,23,00,00,-3.20
2008,01,23,00,01,-3.20
2008,01,23,00,02,-3.20
2008,01,23,00,03,-3.20
2008,01,23,00,04,-3.20
2008,01,23,00,05,-3.20
2008,01,23,00,06,-3.20
2008,01,23,00,07,-3.30
2008,01,23,00,08,-3.30
2008,01,23,00,09,-3.30
2008,01,23,00,10,-3.30
2008,01,23,00,11,-3.30
2008,01,23,00,12,-3.30
2008,01,23,01,02,-3.70
2008,01,23,01,03,-3.70
2008,01,23,01,04,-3.70
2008,01,23,01,05,-3.70
2008,01,23,01,06,-3.70
2008,01,23,01,07,-3.60
2008,01,23,01,08,-3.60
2008,01,23,01,09,-3.60
2008,01,23,01,10,-3.60
2008,01,23,01,11,-3.60
2008,01,23,01,12,-3.60
2008,01,23,01,13,-3.60
2008,01,23,01,14,-3.60
2008,01,23,01,15,-3.70
2008,01,23,01,16,-3.70
2008,01,23,01,17,-3.70
2008,01,23,01,18,-3.70
2008,01,23,01,19,-3.70
2008,01,23,01,20,-3.70
2008,01,23,01,21,-3.70
2008,01,23,01,22,-3.80
2008,01,23,01,23,-3.80
2008,01,23,01,24,-3.80
2008,01,23,01,25,-3.80
2008,01,23,01,26,-3.80
2008,01,23,01,27,-3.80
2008,01,23,01,28,-3.90
2008,01,23,01,29,-3.90
2008,01,23,01,30,-3.90
2008,01,23,01,31,-3.90
2008,01,23,01,32,-3.90
2008,01,23,01,33,-3.90
2008,01,23,01,34,-3.90
2008,01,23,01,35,-3.90
2008,01,23,01,36,-3.90
2008,01,23,01,37,-3.90
2008,01,23,01,38,-3.90
2008,01,23,01,39,-3.90
2008,01,23,01,40,-3.90
2008,01,23,01,41,-3.90
2008,01,23,01,42,-3.90
2008,01,23,01,43,-3.90
2008,01,23,01,44,-3.90
2008,01,23,01,45,-3.90
2008,01,23,01,46,-3.90
2008,01,23,01,47,-3.90
2008,01,23,01,48,-3.90
2008,01,23,01,49,-3.90
2008,01,23,01,50,-4.00
2008,01,23,01,51,-4.00
2008,01,23,01,52,-4.00
2008,01,23,01,53,-4.10
2008,01,23,01,54,-4.10
2008,01,23,01,55,-4.10
2008,01,23,01,56,-4.10
2008,01,23,01,57,-4.20
2008,01,23,01,58,-4.20
2008,01,23,01,59,-4.20
2008,01,23,02,00,-4.20
2008,01,23,02,01,-4.20
2008,01,23,02,02,-4.30
2008,01,23,02,03,-4.30
2008,01,23,02,04,-4.30
2008,01,23,02,05,-4.30
2008,01,23,02,06,-4.30
2008,01,23,02,07,-4.30
2008,01,23,02,08,-4.30
2008,01,23,02,09,-4.30
2008,01,23,02,10,-4.30
2008,01,23,02,11,-4.20
2008,01,23,02,12,-4.20
2008,01,23,02,13,-4.20
2008,01,23,02,14,-4.20
2008,01,23,02,15,-4.20
2008,01,23,02,16,-4.30
2008,01,23,02,17,-4.30
2008,01,23,02,18,-4.30
2008,01,23,02,19,-4.30
2008,01,23,02,20,-4.30
2008,01,23,02,21,-4.30
2008,01,23,02,22,-4.30
2008,01,23,02,23,-4.30
2008,01,23,02,24,-4.30
2008,01,23,02,25,-4.30
2008,01,23,02,26,-4.30
2008,01,23,02,27,-4.30
2008,01,23,02,28,-4.30
2008,01,23,02,29,-4.30
2008,01,23,02,30,-4.30
2008,01,23,02,31,-4.30
2008,01,23,02,32,-4.30
2008,01,23,02,33,-4.30
2008,01,23,02,34,-4.30
2008,01,23,02,35,-4.30
2008,01,23,02,36,-4.30
2008,01,23,02,37,-4.30
2008,01,23,02,38,-4.30
2008,01,23,02,39,-4.30
2008,01,23,02,40,-4.30
2008,01,23,02,41,-4.30
2008,01,23,02,42,-4.30
2008,01,23,02,43,-4.30
2008,01,23,02,44,-4.20
2008,01,23,02,45,-4.20
2008,01,23,02,46,-4.20
2008,01,23,02,47,-4.20
2008,01,23,02,48,-4.20
2008,01,23,02,49,-4.20
2008,01,23,02,50,-4.20
2008,01,23,02,51,-4.20
2008,01,23,02,52,-4.20
2008,01,23,02,53,-4.20
2008,01,23,02,54,-4.20
2008,01,23,02,55,-4.20
2008,01,23,02,56,-4.20
2008,01,23,02,57,-4.20
2008,01,23,02,58,-4.20
2008,01,23,02,59,-4.20
2008,01,23,03,00,-4.20
2008,01,23,03,01,-4.20
2008,01,23,03,02,-4.20
2008,01,23,03,03,-4.20
2008,01,23,03,04,-4.20
2008,01,23,03,05,-4.20
2008,01,23,03,06,-4.10
2008,01,23,03,07,-4.10
2008,01,23,03,08,-4.10
2008,01,23,03,09,-4.10
2008,01,23,03,10,-4.00
2008,01,23,03,11,-4.00
2008,01,23,03,12,-4.00
2008,01,23,03,13,-3.90
2008,01,23,03,14,-3.90
2008,01,23,03,15,-3.90
2008,01,23,03,16,-3.90
2008,01,23,03,17,-3.90
2008,01,23,03,18,-4.00
2008,01,23,03,19,-4.00
2008,01,23,03,20,-4.00
2008,01,23,03,21,-4.00
2008,01,23,03,22,-4.00
2008,01,23,03,23,-4.00
2008,01,23,03,24,-4.00
2008,01,23,03,25,-4.00
2008,01,23,03,26,-4.10
2008,01,23,03,27,-4.10
2008,01,23,03,28,-4.10
2008,01,23,03,29,-4.10
2008,01,23,03,30,-4.00
2008,01,23,03,31,-4.00
2008,01,23,03,32,-4.00
2008,01,23,03,33,-3.90
2008,01,23,03,34,-3.90
2008,01,23,03,35,-3.90
2008,01,23,03,36,-3.90
2008,01,23,03,37,-3.90
2008,01,23,03,38,-3.80
2008,01,23,03,39,-3.80
2008,01,23,03,40,-3.80
2008,01,23,03,41,-3.80
2008,01,23,03,42,-3.80
2008,01,23,03,43,-3.80
2008,01,23,03,44,-3.70
2008,01,23,03,45,-3.70
2008,01,23,03,46,-3.70
2008,01,23,03,47,-3.70
2008,01,23,03,48,-3.70
2008,01,23,03,49,-3.60
2008,01,23,03,50,-3.60
2008,01,23,03,51,-3.60
2008,01,23,03,52,-3.60
2008,01,23,03,53,-3.60
2008,01,23,03,54,-3.60
2008,01,23,03,55,-3.60
2008,01,23,03,56,-3.60
2008,01,23,03,57,-3.60
2008,01,23,03,58,-3.60
2008,01,23,03,59,-3.60
2008,01,23,04,00,-3.70
2008,01,23,04,01,-3.70
2008,01,23,04,02,-3.70
2008,01,23,04,03,-3.70
2008,01,23,04,04,-3.70
2008,01,23,04,05,-3.70
2008,01,23,04,06,-3.70
2008,01,23,04,07,-3.70
2008,01,23,04,08,-3.70
2008,01,23,04,09,-3.70
2008,01,23,04,10,-3.70
2008,01,23,04,11,-3.70
2008,01,23,04,12,-3.70
2008,01,23,04,13,-3.70
2008,01,23,04,14,-3.70
2008,01,23,04,15,-3.70
2008,01,23,04,16,-3.70
2008,01,23,04,17,-3.70
2008,01,23,04,18,-3.60
2008,01,23,04,19,-3.60
2008,01,23,04,20,-3.60
2008,01,23,04,21,-3.60
2008,01,23,04,22,-3.60
2008,01,23,04,23,-3.60
2008,01,23,04,24,-3.60
2008,01,23,04,25,-3.60
2008,01,23,04,26,-3.50
2008,01,23,04,27,-3.50
2008,01,23,04,28,-3.50
2008,01,23,04,29,-3.50
2008,01,23,04,30,-3.40
2008,01,23,04,31,-3.40
2008,01,23,04,32,-3.30
2008,01,23,04,33,-3.30
2008,01,23,04,34,-3.30
2008,01,23,04,35,-3.30
2008,01,23,04,36,-3.20
2008,01,23,04,37,-3.20
2008,01,23,04,38,-3.20
2008,01,23,04,39,-3.20
2008,01,23,04,40,-3.20
2008,01,23,04,41,-3.20
2008,01,23,04,42,-3.20
2008,01,23,04,43,-3.20
2008,01,23,04,44,-3.20
2008,01,23,04,45,-3.20
2008,01,23,04,46,-3.20
2008,01,23,04,47,-3.20
2008,01,23,04,48,-3.20
2008,01,23,04,49,-3.10
2008,01,23,04,50,-3.10
2008,01,23,04,51,-3.10
2008,01,23,04,52,-3.10
2008,01,23,04,53,-3.10
2008,01,23,04,54,-3.10
2008,01,23,04,55,-3.10
2008,01,23,04,56,-3.10
2008,01,23,04,57,-3.10
2008,01,23,04,58,-3.10
2008,01,23,04,59,-3.10
2008,01,23,05,00,-3.20
2008,01,23,05,01,-3.20
2008,01,23,05,02,-3.20
2008,01,23,05,03,-3.20
2008,01,23,05,04,-3.20
2008,01,23,05,05,-3.30
2008,01,23,05,06,-3.30
2008,01,23,05,07,-3.40
2008,01,23,05,08,-3.40
2008,01,23,05,09,-3.50
2008,01,23,05,10,-3.50
2008,01,23,05,11,-3.50
2008,01,23,05,12,-3.50
2008,01,23,05,13,-3.60
2008,01,23,05,14,-3.50
2008,01,23,05,15,-3.60
2008,01,23,05,16,-3.60
2008,01,23,05,17,-3.60
2008,01,23,05,18,-3.60
2008,01,23,05,19,-3.60
2008,01,23,05,20,-3.60
2008,01,23,05,21,-3.60
2008,01,23,05,22,-3.60
2008,01,23,05,23,-3.60
2008,01,23,05,24,-3.60
2008,01,23,05,25,-3.60
2008,01,23,05,26,-3.50
2008,01,23,05,27,-3.50
2008,01,23,05,28,-3.50
2008,01,23,05,29,-3.50
2008,01,23,05,30,-3.50
2008,01,23,05,31,-3.40
2008,01,23,05,32,-3.40
2008,01,23,05,33,-3.40
2008,01,23,05,34,-3.50
2008,01,23,05,35,-3.50
2008,01,23,05,36,-3.50
2008,01,23,05,37,-3.50
2008,01,23,05,38,-3.50
2008,01,23,05,39,-3.50
2008,01,23,05,40,-3.50
2008,01,23,05,41,-3.50
2008,01,23,05,42,-3.60
2008,01,23,05,43,-3.60
2008,01,23,05,44,-3.60
2008,01,23,05,45,-3.60
2008,01,23,05,46,-3.70
2008,01,23,05,47,-3.70
2008,01,23,05,48,-3.70
2008,01,23,05,49,-3.80
2008,01,23,05,50,-3.80
2008,01,23,05,51,-3.80
2008,01,23,05,52,-3.80
2008,01,23,05,53,-3.90
2008,01,23,05,54,-3.90
2008,01,23,05,55,-3.90
2008,01,23,05,56,-3.90
2008,01,23,05,57,-4.00
2008,01,23,05,58,-4.00
2008,01,23,05,59,-4.00
2008,01,23,06,00,-4.10
2008,01,23,06,01,-4.10
2008,01,23,06,02,-4.10
2008,01,23,06,03,-4.10
2008,01,23,06,04,-4.10
2008,01,23,06,05,-4.20
2008,01,23,06,06,-4.20
2008,01,23,06,07,-4.20
2008,01,23,06,08,-4.20
2008,01,23,06,09,-4.20
2008,01,23,06,10,-4.20
2008,01,23,06,11,-4.20
2008,01,23,06,12,-4.20
2008,01,23,06,13,-4.20
2008,01,23,06,14,-4.20
2008,01,23,06,15,-4.20
2008,01,23,06,16,-4.20
2008,01,23,06,17,-4.20
2008,01,23,06,18,-4.20
2008,01,23,06,19,-4.20
2008,01,23,06,20,-4.20
2008,01,23,06,21,-4.20
2008,01,23,06,22,-4.20
2008,01,23,06,23,-4.20
2008,01,23,06,24,-4.20
2008,01,23,06,25,-4.20
2008,01,23,06,26,-4.20
2008,01,23,06,27,-4.30
2008,01,23,06,28,-4.30
2008,01,23,06,29,-4.30
2008,01,23,06,30,-4.30
2008,01,23,06,31,-4.30
2008,01,23,06,32,-4.30
2008,01,23,06,33,-4.30
2008,01,23,06,34,-4.30
2008,01,23,06,35,-4.30
2008,01,23,06,36,-4.30
2008,01,23,06,37,-4.30
2008,01,23,06,38,-4.30
2008,01,23,06,39,-4.30
2008,01,23,06,40,-4.20
2008,01,23,06,41,-4.20
2008,01,23,06,42,-4.20
2008,01,23,06,43,-4.20
2008,01,23,06,44,-4.10
2008,01,23,06,45,-4.10
2008,01,23,06,46,-4.10
2008,01,23,06,47,-4.10
2008,01,23,06,48,-4.10
2008,01,23,06,49,-4.10
2008,01,23,06,50,-4.00
2008,01,23,06,51,-4.00
2008,01,23,06,52,-4.00
2008,01,23,06,53,-3.90
2008,01,23,06,54,-3.90
2008,01,23,06,55,-3.90
2008,01,23,06,56,-3.90
2008,01,23,06,57,-3.90
2008,01,23,06,58,-3.90
2008,01,23,06,59,-3.90
2008,01,23,07,00,-3.90
2008,01,23,07,01,-3.90
2008,01,23,07,02,-3.80
2008,01,23,07,03,-3.80
2008,01,23,07,04,-3.80
2008,01,23,07,05,-3.80
2008,01,23,07,06,-3.80
2008,01,23,07,07,-3.80
2008,01,23,07,08,-3.70
2008,01,23,07,09,-3.70
2008,01,23,07,10,-3.70
2008,01,23,07,11,-3.70
2008,01,23,07,12,-3.70
2008,01,23,07,13,-3.70
2008,01,23,07,14,-3.60
2008,01,23,07,15,-3.60
2008,01,23,07,16,-3.60
2008,01,23,07,17,-3.60
2008,01,23,07,18,-3.70
2008,01,23,07,19,-3.70
2008,01,23,07,20,-3.70
2008,01,23,07,21,-3.70
2008,01,23,07,22,-3.70
2008,01,23,07,23,-3.70
2008,01,23,07,24,-3.70
2008,01,23,07,25,-3.70
2008,01,23,07,26,-3.70
2008,01,23,07,27,-3.70
2008,01,23,07,28,-3.60
2008,01,23,07,29,-3.60
2008,01,23,07,30,-3.60
2008,01,23,07,31,-3.60
2008,01,23,07,32,-3.60
2008,01,23,07,33,-3.50
2008,01,23,07,34,-3.50
2008,01,23,07,35,-3.50
2008,01,23,07,36,-3.40
2008,01,23,07,37,-3.40
2008,01,23,07,38,-3.40
2008,01,23,07,39,-3.40
2008,01,23,07,40,-3.40
2008,01,23,07,41,-3.40
2008,01,23,07,42,-3.40
2008,01,23,07,43,-3.40
2008,01,23,07,44,-3.40
2008,01,23,07,45,-3.40
2008,01,23,07,46,-3.40
2008,01,23,07,47,-3.30
2008,01,23,07,48,-3.30
2008,01,23,07,49,-3.30
2008,01,23,07,50,-3.30
2008,01,23,07,51,-3.30
2008,01,23,07,52,-3.30
2008,01,23,07,53,-3.30
2008,01,23,07,54,-3.30
2008,01,23,07,55,-3.30
2008,01,23,07,56,-3.30
2008,01,23,07,57,-3.30
2008,01,23,07,58,-3.30
2008,01,23,07,59,-3.20
2008,01,23,08,00,-3.20
2008,01,23,08,01,-3.20
2008,01,23,08,02,-3.20
2008,01,23,08,03,-3.20
2008,01,23,08,04,-3.20
2008,01,23,08,05,-3.20
2008,01,23,08,06,-3.20
2008,01,23,08,07,-3.20
2008,01,23,08,08,-3.20
2008,01,23,08,09,-3.20
2008,01,23,08,10,-3.20
2008,01,23,08,11,-3.20
2008,01,23,08,12,-3.10
2008,01,23,08,13,-3.10
2008,01,23,08,14,-3.10
2008,01,23,08,15,-3.00
2008,01,23,08,16,-3.00
2008,01,23,08,17,-2.90
2008,01,23,08,18,-2.90
2008,01,23,08,19,-2.80
2008,01,23,08,20,-2.80
2008,01,23,08,21,-2.80
2008,01,23,08,22,-2.70
2008,01,23,08,23,-2.70
2008,01,23,08,24,-2.70
2008,01,23,08,25,-2.60
2008,01,23,08,26,-2.60
2008,01,23,08,27,-2.60
2008,01,23,08,28,-2.60
2008,01,23,08,29,-2.60
2008,01,23,08,30,-2.60
2008,01,23,08,31,-2.50
2008,01,23,08,32,-2.50
2008,01,23,08,33,-2.50
2008,01,23,08,34,-2.40
2008,01,23,08,35,-2.30
2008,01,23,08,36,-2.30
2008,01,23,08,37,-2.30
2008,01,23,08,38,-2.30
2008,01,23,08,39,-2.30
2008,01,23,08,40,-2.20
2008,01,23,08,41,-2.20
2008,01,23,08,42,-2.20
2008,01,23,08,43,-2.20
2008,01,23,08,44,-2.10
2008,01,23,08,45,-2.10
2008,01,23,08,46,-2.10
2008,01,23,08,47,-2.00
2008,01,23,08,48,-2.00
2008,01,23,08,49,-1.90
2008,01,23,08,50,-1.90
2008,01,23,08,51,-1.80
2008,01,23,08,52,-1.80
2008,01,23,08,53,-1.70
2008,01,23,08,54,-1.70
2008,01,23,08,55,-1.70
2008,01,23,08,56,-1.60
2008,01,23,08,57,-1.60
2008,01,23,08,58,-1.60
2008,01,23,08,59,-1.50
2008,01,23,09,00,-1.50
2008,01,23,09,01,-1.50
2008,01,23,09,02,-1.40
2008,01,23,09,03,-1.40
2008,01,23,09,04,-1.40
2008,01,23,09,05,-1.40
2008,01,23,09,06,-1.30
2008,01,23,09,07,-1.30
2008,01,23,09,08,-1.20
2008,01,23,09,09,-1.20
2008,01,23,09,10,-1.20
2008,01,23,09,11,-1.10
2008,01,23,09,12,-1.10
2008,01,23,09,13,-1.10
2008,01,23,09,14,-1.00
2008,01,23,09,15,-1.00
2008,01,23,09,16,-1.00
2008,01,23,09,17,-1.00
2008,01,23,09,18,-0.90
2008,01,23,09,19,-0.90
2008,01,23,09,20,-0.90
2008,01,23,09,21,-0.90
2008,01,23,09,22,-0.90
2008,01,23,09,23,-0.80
2008,01,23,09,24,-0.80
2008,01,23,09,25,-0.80
2008,01,23,09,26,-0.80
2008,01,23,09,27,-0.80
2008,01,23,09,28,-0.80
2008,01,23,09,29,-0.70
2008,01,23,09,30,-0.70
2008,01,23,09,31,-0.70
2008,01,23,09,32,-0.60
2008,01,23,09,33,-0.60
2008,01,23,09,34,-0.50
2008,01,23,09,35,-0.50
2008,01,23,09,36,-0.40
2008,01,23,09,37,-0.40
2008,01,23,09,38,-0.30
2008,01,23,09,39,-0.30
2008,01,23,09,40,-0.20
2008,01,23,09,41,-0.20
2008,01,23,09,42,-0.10
2008,01,23,09,43,-0.10
2008,01,23,09,44,0.00
2008,01,23,09,45,0.00
2008,01,23,09,46,0.10
2008,01,23,09,47,0.20
2008,01,23,09,48,0.20
2008,01,23,09,49,0.30
2008,01,23,09,50,0.30
2008,01,23,09,51,0.40
2008,01,23,09,52,0.40
2008,01,23,09,53,0.50
2008,01,23,09,54,0.50
2008,01,23,09,55,0.60
2008,01,23,09,56,0.70
2008,01,23,09,57,0.70
2008,01,23,09,58,0.80
2008,01,23,09,59,0.80
2008,01,23,10,00,0.90
2008,01,23,10,01,1.00
2008,01,23,10,02,1.00
2008,01,23,10,03,1.10
2008,01,23,10,04,1.20
2008,01,23,10,05,1.20
2008,01,23,10,06,1.30
2008,01,23,10,07,1.30
2008,01,23,10,08,1.30
2008,01,23,10,09,1.30
2008,01,23,10,10,1.30
2008,01,23,10,11,1.40
2008,01,23,10,12,1.50
2008,01,23,10,13,1.60
2008,01,23,10,14,1.60
2008,01,23,10,15,1.60
2008,01,23,10,16,1.70
2008,01,23,10,17,1.70
2008,01,23,10,18,1.70
2008,01,23,10,19,1.80
2008,01,23,10,20,1.80
2008,01,23,10,21,1.90
2008,01,23,10,22,1.90
2008,01,23,10,23,1.90
2008,01,23,10,24,2.00
2008,01,23,10,25,2.00
2008,01,23,10,26,2.00
2008,01,23,10,27,2.10
2008,01,23,10,28,2.10
2008,01,23,10,29,2.10
2008,01,23,10,30,2.20
2008,01,23,10,31,2.20
2008,01,23,10,32,2.20
2008,01,23,10,33,2.30
2008,01,23,10,34,2.30
2008,01,23,10,35,2.30
2008,01,23,10,36,2.30
2008,01,23,10,37,2.30
2008,01,23,10,38,2.40
2008,01,23,10,39,2.40
2008,01,23,10,40,2.40
2008,01,23,10,41,2.50
2008,01,23,10,42,2.50
2008,01,23,10,43,2.50
2008,01,23,10,44,2.60
2008,01,23,10,45,2.60
2008,01,23,10,46,2.60
2008,01,23,10,47,2.70
2008,01,23,10,48,2.70
2008,01,23,10,49,2.70
2008,01,23,10,50,2.70
2008,01,23,10,51,2.60
2008,01,23,10,52,2.60
2008,01,23,10,53,2.60
2008,01,23,10,54,2.50
2008,01,23,10,55,2.50
2008,01,23,10,56,2.60
2008,01,23,10,57,2.50
2008,01,23,10,58,2.50
2008,01,23,10,59,2.60
2008,01,23,11,00,2.60
2008,01,23,11,01,2.60
2008,01,23,11,02,2.60
2008,01,23,11,03,2.60
2008,01,23,11,04,2.60
2008,01,23,11,05,2.60
2008,01,23,11,06,2.60
2008,01,23,11,07,2.50
2008,01,23,11,08,2.60
2008,01,23,11,09,2.60
2008,01,23,11,10,2.60
2008,01,23,11,11,2.70
2008,01,23,11,12,2.70
2008,01,23,11,13,2.70
2008,01,23,11,14,2.80
2008,01,23,11,15,2.80
2008,01,23,11,16,2.80
2008,01,23,11,17,2.90
2008,01,23,11,18,2.90
2008,01,23,11,19,3.00
2008,01,23,11,20,3.00
2008,01,23,11,21,3.00
2008,01,23,11,22,3.00
2008,01,23,11,23,3.00
2008,01,23,11,24,2.90
2008,01,23,11,25,2.90
2008,01,23,11,26,2.90
2008,01,23,11,27,2.90
2008,01,23,11,28,2.90
2008,01,23,11,29,2.90
2008,01,23,11,30,2.90
2008,01,23,11,31,3.00
2008,01,23,11,32,3.10
2008,01,23,11,33,3.10
2008,01,23,11,34,3.20
2008,01,23,11,35,3.20
2008,01,23,11,36,3.20
2008,01,23,11,37,3.20
2008,01,23,11,38,3.30
2008,01,23,11,39,3.20
2008,01,23,11,40,3.20
2008,01,23,11,41,3.20
2008,01,23,11,42,3.20
2008,01,23,11,43,3.30
2008,01,23,11,44,3.30
2008,01,23,11,45,3.30
2008,01,23,11,46,3.40
2008,01,23,11,47,3.40
2008,01,23,11,48,3.40
2008,01,23,11,49,3.40
2008,01,23,11,50,3.50
2008,01,23,11,51,3.50
2008,01,23,11,52,3.60
2008,01,23,11,53,3.70
2008,01,23,11,54,3.80
2008,01,23,11,55,3.80
2008,01,23,11,56,3.80
2008,01,23,11,57,3.80
2008,01,23,11,58,3.70
2008,01,23,11,59,3.80
2008,01,23,12,00,3.80
2008,01,23,12,01,3.90
2008,01,23,12,02,3.90
2008,01,23,12,03,3.90
2008,01,23,12,04,3.80
2008,01,23,12,05,3.80
2008,01,23,12,06,3.80
2008,01,23,12,07,3.80
2008,01,23,12,08,3.80
2008,01,23,12,09,3.90
2008,01,23,12,10,3.90
2008,01,23,12,11,4.00
2008,01,23,12,12,4.00
2008,01,23,12,13,3.90
2008,01,23,12,14,3.90
2008,01,23,12,15,3.80
2008,01,23,12,16,3.80
2008,01,23,12,17,3.80
2008,01,23,12,18,3.90
2008,01,23,12,19,3.90
2008,01,23,12,20,3.90
2008,01,23,12,21,3.90
2008,01,23,12,22,3.90
2008,01,23,12,23,3.90
2008,01,23,12,24,3.90
2008,01,23,12,25,3.90
2008,01,23,12,26,3.90
2008,01,23,12,27,3.80
2008,01,23,12,28,3.80
2008,01,23,12,29,3.80
2008,01,23,12,30,3.80
2008,01,23,12,31,3.80
2008,01,23,12,32,3.80
2008,01,23,12,33,3.80
2008,01,23,12,34,3.80
2008,01,23,12,35,3.90
2008,01,23,12,36,4.00
2008,01,23,12,37,4.00
2008,01,23,12,38,4.10
2008,01,23,12,39,4.00
2008,01,23,12,40,3.90
2008,01,23,12,41,3.90
2008,01,23,12,42,3.80
2008,01,23,12,43,3.90
2008,01,23,12,44,3.90
2008,01,23,12,45,3.80
2008,01,23,12,46,3.80
2008,01,23,12,47,3.80
2008,01,23,12,48,3.90
2008,01,23,12,49,3.90
2008,01,23,12,50,4.00
2008,01,23,12,51,4.00
2008,01,23,12,52,4.10
2008,01,23,12,53,4.00
2008,01,23,12,54,3.90
2008,01,23,12,55,3.80
2008,01,23,12,56,3.70
2008,01,23,12,57,3.70
2008,01,23,12,58,3.60
2008,01,23,12,59,3.60
2008,01,23,13,00,3.50
2008,01,23,13,01,3.50
2008,01,23,13,02,3.50
2008,01,23,13,03,3.60
2008,01,23,13,04,3.60
2008,01,23,13,05,3.70
2008,01,23,13,06,3.80
2008,01,23,13,07,3.90
2008,01,23,13,08,4.00
2008,01,23,13,09,4.00
2008,01,23,13,10,4.10
2008,01,23,13,11,4.20
2008,01,23,13,12,4.20
2008,01,23,13,13,4.30
2008,01,23,13,14,4.30
2008,01,23,13,15,4.30
2008,01,23,13,16,4.30
2008,01,23,13,17,4.20
2008,01,23,13,18,4.00
2008,01,23,13,19,3.90
2008,01,23,13,20,3.80
2008,01,23,13,21,3.80
2008,01,23,13,22,3.80
2008,01,23,13,23,3.80
2008,01,23,13,24,3.80
2008,01,23,13,25,3.90
2008,01,23,13,26,3.90
2008,01,23,13,27,4.00
2008,01,23,13,28,4.10
2008,01,23,13,29,4.10
2008,01,23,13,30,4.10
2008,01,23,13,31,4.00
2008,01,23,13,32,4.00
2008,01,23,13,33,4.00
2008,01,23,13,34,4.10
2008,01,23,13,35,4.10
2008,01,23,13,36,4.20
2008,01,23,13,37,4.20
2008,01,23,13,38,4.30
2008,01,23,13,39,4.30
2008,01,23,13,40,4.40
2008,01,23,13,41,4.40
2008,01,23,13,42,4.50
2008,01,23,13,43,4.50
2008,01,23,13,44,4.50
2008,01,23,13,45,4.60
2008,01,23,13,46,4.60
2008,01,23,13,47,4.60
2008,01,23,13,48,4.60
2008,01,23,13,49,4.60
2008,01,23,13,50,4.60
2008,01,23,13,51,4.60
2008,01,23,13,52,4.60
2008,01,23,13,53,4.70
2008,01,23,13,54,4.70
2008,01,23,13,55,4.70
2008,01,23,13,56,4.70
2008,01,23,13,57,4.70
2008,01,23,13,58,4.70
2008,01,23,13,59,4.80
2008,01,23,14,00,4.80
2008,01,23,14,01,4.80
2008,01,23,14,02,4.80
2008,01,23,14,03,4.80
2008,01,23,14,04,4.90
2008,01,23,14,05,4.90
2008,01,23,14,06,4.90
2008,01,23,14,07,4.90
2008,01,23,14,08,4.90
2008,01,23,14,09,4.90
2008,01,23,14,10,4.80
2008,01,23,14,11,4.80
2008,01,23,14,12,4.90
2008,01,23,14,13,4.90
2008,01,23,14,14,4.90
2008,01,23,14,15,5.00
2008,01,23,14,16,4.90
2008,01,23,14,17,4.80
2008,01,23,14,18,4.70
2008,01,23,14,19,4.70
2008,01,23,14,20,4.70
2008,01,23,14,21,4.80
2008,01,23,14,22,4.80
2008,01,23,14,23,4.80
2008,01,23,14,24,4.90
2008,01,23,14,25,4.90
2008,01,23,14,26,5.00
2008,01,23,14,27,5.00
2008,01,23,14,28,5.10
2008,01,23,14,29,5.10
2008,01,23,14,30,5.10
2008,01,23,14,31,5.10
2008,01,23,14,32,5.00
2008,01,23,14,33,4.90
2008,01,23,14,34,4.80
2008,01,23,14,35,4.90
2008,01,23,14,36,4.90
2008,01,23,14,37,4.90
2008,01,23,14,38,4.90
2008,01,23,14,39,4.90
2008,01,23,14,40,4.90
2008,01,23,14,41,4.90
2008,01,23,14,42,4.80
2008,01,23,14,43,4.80
2008,01,23,14,44,4.70
2008,01,23,14,45,4.70
2008,01,23,14,46,4.70
2008,01,23,14,47,4.70
2008,01,23,14,48,4.70
2008,01,23,14,49,4.80
2008,01,23,14,50,4.80
2008,01,23,14,51,4.80
2008,01,23,14,52,4.80
2008,01,23,14,53,4.80
2008,01,23,14,54,4.80
2008,01,23,14,55,4.80
2008,01,23,14,56,4.80
2008,01,23,14,57,4.80
2008,01,23,14,58,4.80
2008,01,23,14,59,4.70
2008,01,23,15,00,4.70
2008,01,23,15,01,4.70
2008,01,23,15,02,4.60
2008,01,23,15,03,4.60
2008,01,23,15,04,4.50
2008,01,23,15,05,4.50
2008,01,23,15,06,4.40
2008,01,23,15,07,4.30
2008,01,23,15,08,4.40
2008,01,23,15,09,4.40
2008,01,23,15,10,4.40
2008,01,23,15,11,4.40
2008,01,23,15,12,4.40
2008,01,23,15,13,4.40
2008,01,23,15,14,4.40
2008,01,23,15,15,4.40
2008,01,23,15,16,4.40
2008,01,23,15,17,4.40
2008,01,23,15,18,4.30
2008,01,23,15,19,4.20
2008,01,23,15,20,4.20
2008,01,23,15,21,4.20
2008,01,23,15,22,4.20
2008,01,23,15,23,4.10
2008,01,23,15,24,4.10
2008,01,23,15,25,4.10
2008,01,23,15,26,4.20
2008,01,23,15,27,4.20
2008,01,23,15,28,4.20
2008,01,23,15,29,4.20
2008,01,23,15,30,4.30
2008,01,23,15,31,4.30
2008,01,23,15,32,4.30
2008,01,23,15,33,4.30
2008,01,23,15,34,4.20
2008,01,23,15,35,4.30
2008,01,23,15,36,4.20
2008,01,23,15,37,4.30
2008,01,23,15,38,4.30
2008,01,23,15,39,4.30
2008,01,23,15,40,4.30
2008,01,23,15,41,4.30
2008,01,23,15,42,4.30
2008,01,23,15,43,4.30
2008,01,23,15,44,4.30
2008,01,23,15,45,4.30
2008,01,23,15,46,4.30
2008,01,23,15,47,4.40
2008,01,23,15,48,4.40
2008,01,23,15,49,4.40
2008,01,23,15,50,4.50
2008,01,23,15,51,4.40
2008,01,23,15,52,4.40
2008,01,23,15,53,4.50
2008,01,23,15,54,4.50
2008,01,23,15,55,4.50
2008,01,23,15,56,4.40
2008,01,23,15,57,4.40
2008,01,23,15,58,4.40
2008,01,23,15,59,4.40
2008,01,23,16,00,4.30
2008,01,23,16,01,4.30
2008,01,23,16,02,4.30
2008,01,23,16,03,4.30
2008,01,23,16,04,4.20
2008,01,23,16,05,4.20
2008,01,23,16,06,4.20
2008,01,23,16,07,4.20
2008,01,23,16,08,4.10
2008,01,23,16,09,4.10
2008,01,23,16,10,4.10
2008,01,23,16,11,4.10
2008,01,23,16,12,4.10
2008,01,23,16,13,4.10
2008,01,23,16,14,4.10
2008,01,23,16,15,4.10
2008,01,23,16,16,4.10
2008,01,23,16,17,4.10
2008,01,23,16,18,4.00
2008,01,23,16,19,4.00
2008,01,23,16,20,3.90
2008,01,23,16,21,3.90
2008,01,23,16,22,3.90
2008,01,23,16,23,3.80
2008,01,23,16,24,3.80
2008,01,23,16,25,3.70
2008,01,23,16,26,3.70
2008,01,23,16,27,3.60
2008,01,23,16,28,3.60
2008,01,23,16,29,3.50
2008,01,23,16,30,3.50
2008,01,23,16,31,3.40
2008,01,23,16,32,3.30
2008,01,23,16,33,3.30
2008,01,23,16,34,3.20
2008,01,23,16,35,3.20
2008,01,23,16,36,3.10
2008,01,23,16,37,3.10
2008,01,23,16,38,3.00
2008,01,23,16,39,2.90
2008,01,23,16,40,2.90
2008,01,23,16,41,2.90
2008,01,23,16,42,2.80
2008,01,23,16,43,2.80
2008,01,23,16,44,2.70
2008,01,23,16,45,2.70
2008,01,23,16,46,2.70
2008,01,23,16,47,2.60
2008,01,23,16,48,2.60
2008,01,23,16,49,2.50
2008,01,23,16,50,2.50
2008,01,23,16,51,2.40
2008,01,23,16,52,2.30
2008,01,23,16,53,2.30
2008,01,23,16,54,2.20
2008,01,23,16,55,2.20
2008,01,23,16,56,2.20
2008,01,23,16,57,2.10
2008,01,23,16,58,2.10
2008,01,23,16,59,2.00
2008,01,23,17,00,2.00
2008,01,23,17,01,1.90
2008,01,23,17,02,1.90
2008,01,23,17,03,1.80
2008,01,23,17,04,1.80
2008,01,23,17,05,1.80
2008,01,23,17,06,1.70
2008,01,23,17,07,1.60
2008,01,23,17,08,1.60
2008,01,23,17,09,1.50
2008,01,23,17,10,1.40
2008,01,23,17,11,1.30
2008,01,23,17,12,1.30
2008,01,23,17,13,1.30
2008,01,23,17,14,1.20
2008,01,23,17,15,1.20
2008,01,23,17,16,1.10
2008,01,23,17,17,1.00
2008,01,23,17,18,1.00
2008,01,23,17,19,0.90
2008,01,23,17,20,0.90
2008,01,23,17,21,0.80
2008,01,23,17,22,0.80
2008,01,23,17,23,0.70
2008,01,23,17,24,0.70
2008,01,23,17,25,0.60
2008,01,23,17,26,0.50
2008,01,23,17,27,0.50
2008,01,23,17,28,0.40
2008,01,23,17,29,0.30
2008,01,23,17,30,0.20
2008,01,23,17,31,0.10
2008,01,23,17,32,0.10
2008,01,23,17,33,0.00
2008,01,23,17,34,-0.10
2008,01,23,17,35,-0.10
2008,01,23,17,36,-0.20
2008,01,23,17,37,-0.20
2008,01,23,17,38,-0.30
2008,01,23,17,39,-0.30
2008,01,23,17,40,-0.40
2008,01,23,17,41,-0.40
2008,01,23,17,42,-0.40
2008,01,23,17,43,-0.50
2008,01,23,17,44,-0.60
2008,01,23,17,45,-0.60
2008,01,23,17,46,-0.60
2008,01,23,17,47,-0.60
2008,01,23,17,48,-0.70
2008,01,23,17,49,-0.70
2008,01,23,17,50,-0.70
2008,01,23,17,51,-0.80
2008,01,23,17,52,-0.80
2008,01,23,17,53,-0.80
2008,01,23,17,54,-0.90
2008,01,23,17,55,-0.90
2008,01,23,17,56,-0.90
2008,01,23,17,57,-1.00
2008,01,23,17,58,-1.00
2008,01,23,17,59,-1.00
2008,01,23,18,00,-1.00
2008,01,23,18,01,-1.10
2008,01,23,18,02,-1.10
2008,01,23,18,03,-1.10
2008,01,23,18,04,-1.10
2008,01,23,18,05,-1.10
2008,01,23,18,06,-1.20
2008,01,23,18,07,-1.20
2008,01,23,18,08,-1.20
2008,01,23,18,09,-1.20
2008,01,23,18,10,-1.20
2008,01,23,18,11,-1.20
2008,01,23,18,12,-1.20
2008,01,23,18,13,-1.20
2008,01,23,18,14,-1.30
2008,01,23,18,15,-1.30
2008,01,23,18,16,-1.30
2008,01,23,18,17,-1.30
2008,01,23,18,18,-1.30
2008,01,23,18,19,-1.30
2008,01,23,18,20,-1.30
2008,01,23,18,21,-1.30
2008,01,23,18,22,-1.40
2008,01,23,18,23,-1.40
2008,01,23,18,24,-1.40
2008,01,23,18,25,-1.40
2008,01,23,18,26,-1.40
2008,01,23,18,27,-1.40
2008,01,23,18,28,-1.50